Flag for Turkey Weather past 2 weeks in Mersin, Turkey

Now
88 °F

Sunny.


Feels Like: 84 °F
Forecast: 53 / 76 °F
Wind: 6 mph from North

Location: Adana / Sakirpasa

Current Time: Apr 28, 2015 at 3:35:51 PM

Latest Report: Apr 28, 2015 at 2:50 PM


Visibility: 10 mi

Pressure: 29.92 "Hg

Humidity: 16%

Dew point: 36 °F

Location of MersinLocation

Historic Weather in Mersin — Graph

°F

Mersin temperature yesterday

Maximum temperature yesterday: 86 °F (at 3:50 PM)
Minimum temperature yesterday: 54 °F (at 5:50 AM)
Average temperature yesterday: 70 °F

Past Weeks' High & Low Weather Summary

 TemperatureHumidityPressure
High88 °F (Apr 28, 1:50 PM)88% (Apr 17, 5:20 AM)30.24 "Hg (Apr 17, 5:20 AM)
Low45 °F (Apr 14, 2:50 AM)15% (Apr 15, 1:50 PM)29.65 "Hg (Apr 21, 3:50 PM)
Average63 °F55%29.98 "Hg
* Reported Apr 13 2:20 PM — Apr 28 2:20 PM, Mersin, Weather by CustomWeather, © 2015

Note: Actual official high and low records may vary slightly from our data, if they occured in-between our weather recording intervals... More about our weather records

Advertising

Mersin weather history for previous 24 hours

 ConditionsComfort  
Time TempWeatherWind HumidityBarometerVisibility
2:20 PM
Tue, Apr 28
88 °FSunny.6 mph18%29.95 "Hg10 mi
1:50 PM88 °FSunny.2 mph17%29.95 "Hg10 mi
1:20 PM86 °FSunny.6 mph19%29.95 "Hg10 mi
12:50 PM86 °FPassing clouds.6 mph18%29.95 "HgN/A
12:20 PM86 °FSunny.3 mph18%29.98 "Hg10 mi
11:50 AM86 °FSunny.2 mph20%29.98 "Hg10 mi
11:20 AM84 °FSunny.5 mph25%29.98 "Hg10 mi
10:50 AM82 °FPassing clouds.6 mph23%29.98 "HgN/A
9:50 AM81 °FSunny.8 mph23%29.98 "Hg10 mi
9:20 AM79 °FPassing clouds.5 mph26%29.98 "HgN/A
8:50 AM75 °FPassing clouds.5 mph31%29.98 "HgN/A
8:20 AM73 °FPassing clouds.5 mph33%29.98 "HgN/A
7:50 AM68 °FSunny.2 mph53%29.98 "Hg10 mi
7:20 AM66 °FSunny.1 mph60%29.95 "Hg10 mi
6:50 AM61 °FPassing clouds.3 mph63%29.95 "HgN/A
6:20 AM57 °FClear.2 mph67%29.95 "Hg10 mi
5:50 AM59 °FClear.3 mph63%29.92 "Hg10 mi
5:20 AM61 °FClear.3 mph59%29.92 "Hg10 mi
4:50 AM61 °FClear.7 mph59%29.92 "Hg10 mi
4:20 AM61 °FClear.7 mph63%29.92 "Hg10 mi
3:50 AM61 °FClear.6 mph63%29.92 "Hg10 mi
3:20 AM59 °FClear.8 mph72%29.92 "Hg10 mi
2:50 AM59 °FClear.7 mph68%29.92 "Hg10 mi
2:20 AM61 °FClear.7 mph63%29.92 "Hg10 mi
1:50 AM61 °FClear.5 mph68%29.92 "Hg10 mi
1:20 AM61 °FClear.7 mph68%29.92 "Hg10 mi
12:50 AM63 °FClear.7 mph64%29.92 "Hg10 mi
12:20 AM61 °FClear.5 mph68%29.92 "Hg10 mi
11:50 PM
Mon, Apr 27
64 °FClear.3 mph56%29.92 "Hg10 mi
11:20 PM66 °FClear.5 mph52%29.92 "Hg10 mi
10:50 PM66 °FClear.1 mph46%29.92 "Hg10 mi
10:20 PM66 °FPassing clouds.3 mph46%29.92 "HgN/A
9:50 PM66 °FClear.5 mph43%29.92 "Hg10 mi
9:20 PM70 °FClear.2 mph38%29.92 "Hg10 mi
8:50 PM72 °FPassing clouds.5 mph36%29.92 "HgN/A
8:20 PM70 °FSunny.5 mph38%29.89 "Hg10 mi
7:50 PM73 °FSunny.6 mph31%29.89 "Hg10 mi
7:20 PM73 °FSunny.7 mph33%29.89 "Hg10 mi
6:50 PM77 °FSunny.9 mph28%29.89 "Hg10 mi
6:20 PM81 °FSunny.8 mph23%29.89 "Hg10 mi
5:50 PM82 °FSunny.5 mph23%29.89 "Hg10 mi
5:20 PM84 °FPassing clouds.6 mph18%29.89 "HgN/A
4:50 PM86 °FSunny.3 mph15%29.89 "Hg10 mi
4:20 PM84 °FSunny.3 mph16%29.89 "Hg10 mi
3:50 PM86 °FSunny.2 mph17%29.89 "Hg10 mi
3:20 PM84 °FPassing clouds.5 mph16%29.89 "HgN/A
Weather by CustomWeather, © 2015

See weather overviewHow to use our weather pages